Lid_Strength_Index
-0 -0 2 5 10 11 14 12 9 9 11 9 9 10 10 10 10 12 5 1 1 2 0 -0 -1 -1 -2 -2 -2 -2 -2 -2 -2 -2 -2 -2 -2 -2 -2 -1 -1 -1 -1 -1 -2 -2 -2 -2 -2
0 1 4 7 13 16 14 10 10 8 9 9 9 9 9 8 5 4 3 1 1 1 0 -0 -1 -1 -1 -1 -1 -1 -1 -1 -2 -2 -1 -1 -1 -1 -1 -1 -1 -1 -1 -1 -2 -2 -2 -2 -2
1 5 8 10 13 16 14 10 9 7 7 9 9 7 7 7 3 4 3 1 2 0 0 -0 -1 -1 -1 -1 -1 -1 -1 -1 -1 -1 -1 -1 -1 -1 -1 -2 -2 -2 -2 -2 -2 -2 -2 -2 -2
3 4 6 12 14 11 10 8 7 7 9 9 8 8 7 4 3 4 1 2 1 0 -0 -1 -1 -1 -1 -1 -1 -1 -1 -1 -1 -1 -1 -1 -1 -1 -1 -1 -1 -2 -2 -2 -2 -2 -2 -2 -2
3 7 12 13 13 10 8 7 8 8 9 9 8 8 8 5 2 1 1 1 2 1 0 -0 -1 -1 -1 -1 -1 -1 -1 -1 -1 -1 -1 -1 -1 -1 -1 -1 -2 -2 -2 -2 -2 -2 -2 -1 -2
7 8 13 15 12 9 8 7 8 8 7 9 8 8 8 4 3 2 1 1 0 1 0 0 -1 -1 -1 -1 -1 -1 -1 -1 -1 -1 -1 -1 -1 -1 -1 -1 -1 -2 -2 -2 -2 -2 -2 -2 -2
8 10 13 12 11 10 8 7 9 8 8 8 7 8 7 5 3 4 4 1 1 0 0 0 0 -0 -1 -1 -1 -1 -1 -1 -1 -1 -1 -1 -1 -1 -1 -1 -2 -2 -2 -2 -2 -2 -2 -2 -2
7 8 12 11 11 11 7 7 8 9 8 6 5 8 8 5 4 5 3 2 1 1 0 0 0 0 1 1 -1 -1 -1 -1 -1 -1 -1 -1 -1 -1 -1 -1 -1 -2 -2 -2 -2 -2 -2 -2 -2
6 11 13 11 10 9 7 9 6 6 8 7 7 6 5 4 4 4 5 5 4 3 3 2 0 0 1 0 0 -1 -1 -1 -1 -1 -1 -1 1 1 -0 -1 -1 -1 -1 -1 -2 -2 -2 -2 -2
8 11 11 7 8 8 7 7 6 7 7 8 7 5 4 4 5 5 5 5 5 3 4 3 2 1 1 -0 1 1 0 1 1 1 1 2 1 2 -0 -1 -1 -1 -1 -1 -1 -1 -1 -1 1
8 10 7 7 6 6 7 7 5 7 8 7 8 7 5 5 5 5 4 4 4 2 4 4 3 2 1 1 1 1 2 2 2 2 2 2 1 1 1 1 1 1 -1 0 -0 -0 0 1 2
10 7 6 6 5 6 7 5 6 6 6 5 6 6 5 5 5 5 5 5 6 5 4 4 3 3 3 2 2 2 3 2 3 2 2 2 2 2 2 2 2 2 1 1 1 1 1 2 1
8 7 6 6 6 6 6 7 7 6 5 5 6 5 5 5 5 4 4 5 6 6 5 3 2 2 2 2 2 3 2 2 2 2 2 2 2 2 2 1 1 1 1 1 2 2 2 2 1
7 7 7 6 6 6 7 7 6 6 5 5 6 6 5 5 5 5 6 6 6 5 4 3 2 1 2 2 2 2 2 2 2 2 2 2 2 2 2 2 1 2 2 2 2 2 2 2 2
9 10 9 8 7 7 6 9 8 6 6 7 7 7 6 5 5 5 5 5 5 4 4 3 2 2 2 2 2 2 2 2 2 2 2 2 2 2 2 3 3 2 2 2 2 2 2 2 2
11 12 14 10 8 7 8 11 8 6 7 7 7 7 7 6 6 5 5 5 5 3 3 3 1 2 2 2 2 3 2 3 2 2 2 2 2 2 2 3 3 2 2 2 2 2 2 2 2
13 15 14 11 9 8 10 11 7 6 7 8 7 7 8 7 7 6 5 5 5 3 3 3 2 3 2 3 3 3 2 2 2 2 3 2 2 1 2 3 3 2 3 3 2 3 3 3 3
15 15 13 13 10 9 11 11 8 7 7 8 7 7 7 7 7 6 5 5 5 4 3 3 3 3 3 3 3 3 3 3 2 3 3 2 2 1 3 3 3 2 3 3 3 3 2 3 3
12 13 13 11 9 10 11 11 9 7 8 8 7 7 8 7 7 6 5 5 4 4 3 3 3 3 3 4 4 4 4 3 3 2 2 2 1 2 2 2 2 2 3 3 2 2 3 3 3
12 13 13 10 8 11 11 11 9 8 8 8 7 8 8 8 7 5 5 5 4 3 3 3 3 3 3 4 3 4 4 3 3 3 1 1 1 2 2 2 2 3 3 3 3 3 3 3 3
13 14 13 12 9 10 11 11 10 8 8 8 8 8 8 7 7 5 5 5 4 3 3 3 3 3 4 3 3 4 4 3 3 3 3 2 2 1 1 2 2 3 3 3 3 3 3 4 3
14 10 10 10 12 15 11 16 12 10 9 9 8 8 8 7 6 5 5 6 4 3 3 3 3 4 3 3 3 4 5 5 4 4 3 3 2 1 1 2 2 2 3 3 3 2 3 3 4
12 9 9 10 12 14 12 15 13 11 10 10 9 9 8 7 6 5 5 4 4 4 3 4 4 4 3 3 4 4 5 4 4 4 3 3 3 1 1 2 2 3 3 3 2 3 3 3 3
10 11 11 11 13 16 12 13 13 12 11 10 9 8 7 7 6 5 5 4 4 4 4 4 4 3 3 3 4 4 4 4 4 4 4 4 3 2 2 2 2 3 3 2 3 3 3 3 3
12 14 17 19 18 18 12 14 12 10 9 8 8 8 8 7 6 5 5 5 5 5 4 5 4 4 4 3 3 4 4 4 4 4 4 4 4 4 3 3 3 3 3 3 2 3 3 3 3
13 13 16 20 19 17 12 15 12 9 8 8 8 8 8 7 6 5 5 5 5 4 4 4 4 4 4 4 3 4 4 4 4 3 4 4 4 4 3 2 2 2 2 2 2 2 3 2 3
13 14 11 15 14 16 15 12 10 10 9 8 8 8 8 7 6 5 5 6 5 5 5 4 4 5 4 4 3 4 3 4 4 3 3 3 3 3 3 2 2 2 2 2 2 3 2 1 2
12 11 15 16 19 20 16 14 13 12 10 9 9 9 8 7 6 5 5 6 6 5 4 4 4 4 5 4 3 3 2 3 4 3 3 3 3 3 3 2 2 2 2 2 2 2 1 2 1
13 13 14 13 14 18 19 15 11 11 10 9 9 8 8 7 6 6 6 6 6 5 5 5 4 5 4 4 4 2 3 3 3 3 3 3 3 3 3 3 3 3 3 2 3 2 2 1 2
10 12 12 15 16 15 15 14 9 10 10 8 8 8 8 7 6 6 6 7 7 5 6 4 4 5 4 4 4 2 3 3 3 3 3 3 3 3 2 2 2 2 2 2 2 2 2 2 2